Winnemucca, NV

5:39 PM PDT on March 25, 2017 (GMT -0700)
Winnemucca Municipal

Weather History for KWMC - May, 2013

Change the Weather History Date:

Wednesday, May 1, 2013

  Actual Average Record
Temperature  
Mean Temperature 45 °F 51 °F  
Max Temperature 60 °F 67 °F 89 °F (1947)
Min Temperature 30 °F 34 °F 13 °F (2008)
Degree Days  
Heating Degree Days 20 14  
Month to date heating degree days 20 14  
Since 1 July heating degree days 6059 5894  
Cooling Degree Days 0 0  
Month to date cooling degree days 0 0  
Year to date cooling degree days 0 0  
Moisture  
Dew Point 4 °F    
Average Humidity 26    
Maximum Humidity 43    
Minimum Humidity 9    
Precipitation  
Precipitation 0.00 in 0.04 in 0.51 in (1901)
Month to date precipitation 0.00 0.04  
Year to date precipitation 1.34 3.29  
Snow  
Snow 0.00 in 0.00 in 5.20 in (1915)
Month to date snowfall 0.0 0.0  
Since 1 July snowfall 21.9 20.8  
Snow Depth 0.00 in    
Sea Level Pressure  
Sea Level Pressure 30.40 in    
Wind  
Wind Speed 12 mph (NNE)    
Max Wind Speed 22 mph    
Max Gust Speed 30 mph    
Visibility 10 miles    
Events      
T = Trace of Precipitation, MM = Missing Value Source: NWS Daily Summary

Daily Weather History Graph

Daily Weather History Graph

Search for Another Location

Airport or City:

Trip Planner

Search our weather history database for the weather conditions in past years. The results will help you decide how hot, cold, wet, or windy it might be!

Date:

Astronomy

May. 01, 2013 Rise Set
Actual Time 5:49 AM PDT 7:48 PM PDT
Civil Twilight 5:19 AM PDT 8:18 PM PDT
Nautical Twilight 4:42 AM PDT 8:54 PM PDT
Astronomical Twilight 4:03 AM PDT 9:34 PM PDT
Moon 1:01 AM PDT (5/1) 11:32 AM PDT (5/1)
Length of Visible Light 14h 58m
Length of Day
13h 59m
Waning Gibbous, 58% of the Moon is Illuminated
May 1
Waning Gibbous
May 2
Last Quarter
May 9
New
May 17
First Quarter
May 24
Full

Hourly Weather History & Observations

Time (PDT) Temp. Windchill Dew Point Humidity Pressure Visibility Wind Dir Wind Speed Gust Speed Precip Events Conditions
12:56 AM 37.0 °F 34.5 °F 3.9 °F 25% 30.25 in 10.0 mi NE 3.5 mph - N/A   Clear
1:56 AM 35.1 °F 29.3 °F 6.1 °F 30% 30.27 in 10.0 mi NNE 6.9 mph - N/A   Clear
2:56 AM 36.0 °F 31.1 °F 7.0 °F 30% 30.29 in 10.0 mi Variable 5.8 mph - N/A   Clear
3:56 AM 33.1 °F 25.5 °F 9.0 °F 37% 30.32 in 10.0 mi NNE 9.2 mph - N/A   Clear
4:56 AM 30.9 °F 25.2 °F 8.1 °F 38% 30.35 in 10.0 mi North 5.8 mph - N/A   Clear
5:56 AM 30.9 °F 23.5 °F 10.0 °F 42% 30.38 in 10.0 mi NE 8.1 mph - N/A   Clear
6:56 AM 34.0 °F 25.0 °F 10.9 °F 38% 30.40 in 10.0 mi NNE 12.7 mph - N/A   Clear
7:56 AM 37.0 °F 28.9 °F 12.0 °F 36% 30.42 in 10.0 mi NNE 12.7 mph - N/A   Clear
8:56 AM 41.0 °F 33.5 °F 12.0 °F 31% 30.43 in 10.0 mi North 13.8 mph - N/A   Clear
9:56 AM 45.0 °F 37.6 °F 8.1 °F 22% 30.42 in 10.0 mi NNE 17.3 mph - N/A   Clear
10:56 AM 48.0 °F - 3.0 °F 16% 30.43 in 10.0 mi NNE 18.4 mph 24.2 mph N/A   Clear
11:56 AM 51.1 °F - 3.9 °F 15% 30.42 in 10.0 mi NNE 16.1 mph 27.6 mph N/A   Clear
12:56 PM 54.0 °F - 6.1 °F 15% 30.41 in 10.0 mi North 17.3 mph 24.2 mph N/A   Clear
1:56 PM 57.0 °F - 5.0 °F 12% 30.41 in 10.0 mi NNE 17.3 mph 23.0 mph N/A   Clear
2:56 PM 60.1 °F - 1.0 °F 9% 30.39 in 10.0 mi North 17.3 mph 25.3 mph N/A   Clear
3:56 PM 60.1 °F - 1.0 °F 9% 30.39 in 10.0 mi North 12.7 mph 21.9 mph N/A   Clear
4:56 PM 60.1 °F - 1.0 °F 9% 30.40 in 10.0 mi NNE 12.7 mph 20.7 mph N/A   Clear
5:56 PM 60.1 °F - -0.0 °F 9% 30.41 in 10.0 mi Variable 5.8 mph - N/A   Clear
6:56 PM 57.0 °F - -2.9 °F 9% 30.42 in 10.0 mi North 13.8 mph 20.7 mph N/A   Clear
7:56 PM 50.0 °F - -0.9 °F 12% 30.45 in 10.0 mi NNE 5.8 mph - N/A   Clear
8:56 PM 48.0 °F - 1.0 °F 14% 30.47 in 10.0 mi NNE 6.9 mph - N/A   Clear
9:56 PM 45.0 °F 41.2 °F 1.0 °F 16% 30.49 in 10.0 mi NE 6.9 mph - N/A   Clear
10:56 PM 45.0 °F 39.7 °F 1.0 °F 16% 30.49 in 10.0 mi NNE 10.4 mph - N/A   Clear
11:56 PM 42.1 °F 33.3 °F 3.0 °F 20% 30.49 in 10.0 mi NNE 19.6 mph 23.0 mph N/A   Clear